{"data":{"norad_id":58067,"epoch":"2026-09-19T14:35:16.612224Z","epoch_age_seconds":214735,"freshness":"STALE","line1":"1 58067U 23158S   26262.60783116 -.00000147  00000+0  41997-5 0  9992","line2":"2 58067  43.0042  12.1943 0001289 280.7576  79.3130 15.27576177163221","mean_motion":15.27576177,"eccentricity":0.0001289,"inclination_deg":43.0042,"raan_deg":12.1943,"arg_perigee_deg":280.7576,"mean_anomaly_deg":79.313,"bstar":4.1997e-6,"rev_number":16322,"period_min":94.266984631039,"perigee_km":482.17613513749,"apogee_km":483.9449518642,"semimajor_km":6861.1975435008,"source":"CELESTRAK","updated_at":"2026-09-21T09:00:33.780262Z"}}